Time,TemperatureF,DewpointF,PressureIn,WindDirection,WindDirectionDegrees,WindSpeedMPH,WindSpeedGustMPH,Humidity,HourlyPrecipIn,Conditions,Clouds,dailyrainin,SoftwareType,DateUTC
2013-03-29 00:00:00,40.3,13.5,29.74,North,357,4.0,5.4,33,0.00,,---,0.00,VWS V13.01,2013-03-29 04:00:00,
2013-03-29 00:01:00,40.1,13.3,29.74,North,357,5.4,7.2,33,0.00,,---,0.00,VWS V13.01,2013-03-29 04:01:00,
2013-03-29 00:02:00,40.3,13.5,29.74,North,1,7.4,9.8,33,0.00,,---,0.00,VWS V13.01,2013-03-29 04:02:00,
2013-03-29 00:03:00,40.3,13.5,29.74,North,353,7.4,9.8,33,0.00,,---,0.00,VWS V13.01,2013-03-29 04:03:00,
2013-03-29 00:09:00,40.3,13.5,29.74,North,0,0.0,0.0,33,0.00,,---,0.00,VWS V13.01,2013-03-29 04:09:00,
2013-03-29 00:15:00,40.3,13.5,29.74,North,0,9.4,12.5,33,0.00,,---,0.00,VWS V13.01,2013-03-29 04:15:00,
2013-03-29 00:20:00,40.1,13.3,29.74,NW,323,4.0,5.4,33,0.00,,---,0.00,VWS V13.01,2013-03-29 04:20:00,
2013-03-29 00:26:00,40.1,13.3,29.74,NNW,331,5.4,7.2,33,0.00,,---,0.00,VWS V13.01,2013-03-29 04:26:00,
2013-03-29 00:31:00,40.3,12.8,29.74,North,350,7.4,9.8,32,0.00,,---,0.00,VWS V13.01,2013-03-29 04:31:00,
2013-03-29 00:36:00,40.3,12.8,29.74,NNE,21,0.0,0.0,32,0.00,,---,0.00,VWS V13.01,2013-03-29 04:36:00,
2013-03-29 00:42:00,40.3,12.8,29.74,North,357,7.4,9.8,32,0.00,,---,0.00,VWS V13.01,2013-03-29 04:42:00,
2013-03-29 00:47:00,40.3,12.8,29.74,North,2,6.0,8.1,32,0.00,,---,0.00,VWS V13.01,2013-03-29 04:47:00,
2013-03-29 00:53:00,40.1,12.6,29.74,NNW,341,0.0,0.0,32,0.00,,---,0.00,VWS V13.01,2013-03-29 04:53:00,
2013-03-29 00:58:00,39.9,13.2,29.74,North,357,6.0,8.1,33,0.00,,---,0.00,VWS V13.01,2013-03-29 04:58:00,
2013-03-29 01:04:00,39.9,13.2,29.74,NNW,348,5.4,7.2,33,0.00,,---,0.00,VWS V13.01,2013-03-29 05:04:00,
2013-03-29 01:09:00,39.9,13.2,29.74,NNE,21,0.0,0.0,33,0.00,,---,0.00,VWS V13.01,2013-03-29 05:09:00,
2013-03-29 01:14:00,39.7,13.7,29.74,North,357,4.0,5.4,34,0.00,,---,0.00,VWS V13.01,2013-03-29 05:14:00,
2013-03-29 01:20:00,39.7,13.7,29.74,North,357,6.0,8.1,34,0.00,,---,0.00,VWS V13.01,2013-03-29 05:20:00,
2013-03-29 01:26:00,39.6,14.2,29.74,NNW,340,3.4,4.5,35,0.00,,---,0.00,VWS V13.01,2013-03-29 05:26:00,
2013-03-29 01:31:00,39.4,14.0,29.74,North,353,4.0,5.4,35,0.00,,---,0.00,VWS V13.01,2013-03-29 05:31:00,
2013-03-29 01:38:00,39.2,15.1,29.74,North,5,0.0,0.0,37,0.00,,---,0.00,VWS V13.01,2013-03-29 05:38:00,
2013-03-29 01:44:00,39.2,14.5,29.74,North,357,0.0,0.0,36,0.00,,---,0.00,VWS V13.01,2013-03-29 05:44:00,
2013-03-29 01:49:00,39.2,14.5,29.74,North,0,0.0,0.0,36,0.00,,---,0.00,VWS V13.01,2013-03-29 05:49:00,
2013-03-29 01:54:00,39.2,14.5,29.74,North,357,0.0,0.0,36,0.00,,---,0.00,VWS V13.01,2013-03-29 05:54:00,
2013-03-29 02:00:00,39.0,14.3,29.74,North,357,0.0,0.0,36,0.00,,---,0.00,VWS V13.01,2013-03-29 06:00:00,
2013-03-29 02:06:00,38.8,14.8,29.74,North,357,0.0,0.0,37,0.00,,---,0.00,VWS V13.01,2013-03-29 06:06:00,
2013-03-29 02:12:00,39.0,14.3,29.74,North,357,0.0,0.0,36,0.00,,---,0.00,VWS V13.01,2013-03-29 06:12:00,
2013-03-29 02:17:00,38.8,14.2,29.74,North,357,0.0,0.0,36,0.00,,---,0.00,VWS V13.01,2013-03-29 06:17:00,
2013-03-29 02:23:00,38.7,14.6,29.74,North,357,0.0,0.0,37,0.00,,---,0.00,VWS V13.01,2013-03-29 06:23:00,
2013-03-29 02:29:00,38.5,15.1,29.74,North,357,0.0,0.0,38,0.00,,---,0.00,VWS V13.01,2013-03-29 06:29:00,
2013-03-29 02:36:00,38.3,15.5,29.74,North,357,0.0,0.0,39,0.00,,---,0.00,VWS V13.01,2013-03-29 06:36:00,
2013-03-29 02:41:00,38.1,15.4,29.74,North,357,0.0,0.0,39,0.00,,---,0.00,VWS V13.01,2013-03-29 06:41:00,
2013-03-29 02:46:00,37.9,15.2,29.74,North,357,0.0,0.0,39,0.00,,---,0.00,VWS V13.01,2013-03-29 06:46:00,
2013-03-29 02:51:00,37.9,15.8,29.74,North,357,0.0,0.0,40,0.00,,---,0.00,VWS V13.01,2013-03-29 06:51:00,
2013-03-29 02:57:00,37.8,15.6,29.74,North,357,0.0,0.0,40,0.00,,---,0.00,VWS V13.01,2013-03-29 06:57:00,
2013-03-29 03:02:00,37.6,15.5,29.74,North,357,0.0,0.0,40,0.00,,---,0.00,VWS V13.01,2013-03-29 07:02:00,
2013-03-29 03:08:00,37.8,15.6,29.74,North,357,0.0,0.0,40,0.00,,---,0.00,VWS V13.01,2013-03-29 07:08:00,
2013-03-29 03:13:00,37.9,16.9,29.74,North,357,0.0,0.0,42,0.00,,---,0.00,VWS V13.01,2013-03-29 07:13:00,
2013-03-29 03:20:00,37.9,16.9,29.74,North,357,0.0,0.0,42,0.00,,---,0.00,VWS V13.01,2013-03-29 07:20:00,
2013-03-29 03:25:00,37.9,16.9,29.74,NNW,339,0.0,0.0,42,0.00,,---,0.00,VWS V13.01,2013-03-29 07:25:00,
2013-03-29 03:30:00,37.9,16.4,29.74,NNW,339,0.0,0.0,41,0.00,,---,0.00,VWS V13.01,2013-03-29 07:30:00,
2013-03-29 03:35:00,38.1,15.9,29.74,North,353,0.0,0.0,40,0.00,,---,0.00,VWS V13.01,2013-03-29 07:35:00,
2013-03-29 03:41:00,37.9,15.8,29.74,North,353,0.0,0.0,40,0.00,,---,0.00,VWS V13.01,2013-03-29 07:41:00,
2013-03-29 03:46:00,37.6,15.5,29.74,North,353,0.0,0.0,40,0.00,,---,0.00,VWS V13.01,2013-03-29 07:46:00,
2013-03-29 03:52:00,37.2,15.1,29.74,North,353,0.0,0.0,40,0.00,,---,0.00,VWS V13.01,2013-03-29 07:52:00,
2013-03-29 03:57:00,37.0,15.0,29.74,North,353,0.0,0.0,40,0.00,,---,0.00,VWS V13.01,2013-03-29 07:57:00,
2013-03-29 04:02:00,37.4,15.9,29.74,North,353,0.0,0.0,41,0.00,,---,0.00,VWS V13.01,2013-03-29 08:02:00,
2013-03-29 04:08:00,37.6,15.5,29.74,North,353,0.0,0.0,40,0.00,,---,0.00,VWS V13.01,2013-03-29 08:08:00,
2013-03-29 04:14:00,37.8,15.0,29.74,North,353,0.0,0.0,39,0.00,,---,0.00,VWS V13.01,2013-03-29 08:14:00,
2013-03-29 04:19:00,37.8,13.2,29.74,NNW,330,0.0,0.0,36,0.00,,---,0.00,VWS V13.01,2013-03-29 08:19:00,
2013-03-29 04:25:00,37.8,13.2,29.74,NNW,330,0.0,0.0,36,0.00,,---,0.00,VWS V13.01,2013-03-29 08:25:00,
2013-03-29 04:30:00,38.1,11.6,29.74,NNW,341,5.4,7.2,33,0.00,,---,0.00,VWS V13.01,2013-03-29 08:30:00,
2013-03-29 04:36:00,38.5,10.5,29.74,North,357,5.4,7.2,31,0.00,,---,0.00,VWS V13.01,2013-03-29 08:36:00,
2013-03-29 04:41:00,38.7,9.9,29.74,NNE,12,0.0,0.0,30,0.00,,---,0.00,VWS V13.01,2013-03-29 08:41:00,
2013-03-29 04:46:00,38.8,9.3,29.74,NNE,12,4.0,5.4,29,0.00,,---,0.00,VWS V13.01,2013-03-29 08:46:00,
2013-03-29 04:52:00,38.8,9.3,29.74,NNE,21,0.0,0.0,29,0.00,,---,0.00,VWS V13.01,2013-03-29 08:52:00,
2013-03-29 04:57:00,38.7,9.2,29.74,North,7,0.0,0.0,29,0.00,,---,0.00,VWS V13.01,2013-03-29 08:57:00,
2013-03-29 05:03:00,38.7,9.2,29.74,North,7,0.0,0.0,29,0.00,,---,0.00,VWS V13.01,2013-03-29 09:03:00,
2013-03-29 05:10:00,38.5,9.8,29.74,North,4,0.0,0.0,30,0.00,,---,0.00,VWS V13.01,2013-03-29 09:10:00,
2013-03-29 05:15:00,38.5,9.8,29.74,NNW,340,7.4,9.8,30,0.00,,---,0.00,VWS V13.01,2013-03-29 09:15:00,
2013-03-29 05:20:00,38.7,9.9,29.74,North,353,0.0,0.0,30,0.00,,---,0.00,VWS V13.01,2013-03-29 09:20:00,
2013-03-29 05:25:00,38.5,9.8,29.74,North,353,0.0,0.0,30,0.00,,---,0.00,VWS V13.01,2013-03-29 09:25:00,
2013-03-29 05:30:00,38.1,9.4,29.77,NNW,330,0.0,0.0,30,0.00,,---,0.00,VWS V13.01,2013-03-29 09:30:00,
2013-03-29 05:36:00,38.1,9.4,29.77,North,350,4.0,5.4,30,0.00,,---,0.00,VWS V13.01,2013-03-29 09:36:00,
2013-03-29 05:41:00,38.1,9.4,29.77,NNW,344,3.4,4.5,30,0.00,,---,0.00,VWS V13.01,2013-03-29 09:41:00,
2013-03-29 05:46:00,38.1,9.4,29.77,North,5,3.4,4.5,30,0.00,,---,0.00,VWS V13.01,2013-03-29 09:46:00,
2013-03-29 05:52:00,38.1,9.4,29.77,North,357,0.0,0.0,30,0.00,,---,0.00,VWS V13.01,2013-03-29 09:52:00,
2013-03-29 05:58:00,38.1,9.4,29.77,North,353,0.0,0.0,30,0.00,,---,0.00,VWS V13.01,2013-03-29 09:58:00,
2013-03-29 06:03:00,37.9,9.3,29.77,North,0,0.0,0.0,30,0.00,,---,0.00,VWS V13.01,2013-03-29 10:03:00,
2013-03-29 06:08:00,37.8,9.1,29.77,North,2,0.0,0.0,30,0.00,,---,0.00,VWS V13.01,2013-03-29 10:08:00,
2013-03-29 06:14:00,37.6,9.7,29.77,North,0,0.0,0.0,31,0.00,,---,0.00,VWS V13.01,2013-03-29 10:14:00,
2013-03-29 06:19:00,37.4,9.5,29.77,North,357,0.0,0.0,31,0.00,,---,0.00,VWS V13.01,2013-03-29 10:19:00,
2013-03-29 06:24:00,37.4,9.5,29.77,NNE,21,0.0,0.0,31,0.00,,---,0.00,VWS V13.01,2013-03-29 10:24:00,
2013-03-29 06:29:00,37.4,9.5,29.77,North,9,0.0,0.0,31,0.00,,---,0.00,VWS V13.01,2013-03-29 10:29:00,
2013-03-29 06:35:00,37.4,9.5,29.77,North,9,0.0,0.0,31,0.00,,---,0.00,VWS V13.01,2013-03-29 10:35:00,
2013-03-29 06:40:00,37.0,9.9,29.77,North,5,0.0,0.0,32,0.00,,---,0.00,VWS V13.01,2013-03-29 10:40:00,
2013-03-29 06:45:00,36.9,10.5,29.77,North,357,0.0,0.0,33,0.00,,---,0.00,VWS V13.01,2013-03-29 10:45:00,
2013-03-29 06:50:00,36.7,10.3,29.77,NW,326,0.0,0.0,33,0.00,,---,0.00,VWS V13.01,2013-03-29 10:50:00,
2013-03-29 06:56:00,36.7,11.0,29.77,North,357,4.0,5.4,34,0.00,,---,0.00,VWS V13.01,2013-03-29 10:56:00,
2013-03-29 07:01:00,36.7,11.0,29.77,NNW,329,4.0,5.4,34,0.00,,---,0.00,VWS V13.01,2013-03-29 11:01:00,
2013-03-29 07:07:00,37.0,10.6,29.77,NNW,343,0.0,0.0,33,0.00,,---,0.00,VWS V13.01,2013-03-29 11:07:00,
2013-03-29 07:13:00,37.0,9.9,29.77,North,357,0.0,0.0,32,0.00,,---,0.00,VWS V13.01,2013-03-29 11:13:00,
2013-03-29 07:19:00,37.4,9.5,29.77,North,7,6.0,8.1,31,0.00,,---,0.00,VWS V13.01,2013-03-29 11:19:00,
2013-03-29 07:25:00,37.6,9.7,29.77,North,353,0.0,0.0,31,0.00,,---,0.00,VWS V13.01,2013-03-29 11:25:00,
2013-03-29 07:30:00,37.6,9.0,29.77,North,11,0.0,0.0,30,0.00,,---,0.00,VWS V13.01,2013-03-29 11:30:00,
2013-03-29 07:35:00,37.9,9.3,29.77,North,357,0.0,0.0,30,0.00,,---,0.00,VWS V13.01,2013-03-29 11:35:00,
2013-03-29 07:41:00,38.1,8.7,29.77,North,1,4.0,5.4,29,0.00,,---,0.00,VWS V13.01,2013-03-29 11:41:00,
2013-03-29 07:47:00,38.5,9.0,29.77,NNW,335,4.0,5.4,29,0.00,,---,0.00,VWS V13.01,2013-03-29 11:47:00,
2013-03-29 07:53:00,38.8,9.3,29.77,NNW,341,0.0,0.0,29,0.00,,---,0.00,VWS V13.01,2013-03-29 11:53:00,
2013-03-29 07:58:00,39.6,7.5,29.77,North,357,0.0,0.0,26,0.00,,---,0.00,VWS V13.01,2013-03-29 11:58:00,
2013-03-29 08:04:00,40.3,5.4,29.77,North,357,0.0,0.0,23,0.00,,---,0.00,VWS V13.01,2013-03-29 12:04:00,
2013-03-29 08:09:00,40.8,5.9,29.77,North,1,5.4,7.2,23,0.00,,---,0.00,VWS V13.01,2013-03-29 12:09:00,
2013-03-29 08:15:00,41.2,4.2,29.77,NNW,345,4.7,6.3,21,0.00,,---,0.00,VWS V13.01,2013-03-29 12:15:00,
2013-03-29 08:20:00,42.1,5.0,29.77,North,9,4.7,6.3,21,0.00,,---,0.00,VWS V13.01,2013-03-29 12:20:00,
2013-03-29 08:25:00,43.5,5.1,29.77,North,353,5.4,7.2,20,0.00,,---,0.00,VWS V13.01,2013-03-29 12:25:00,
2013-03-29 08:30:00,45.5,6.8,29.77,NNW,344,4.0,5.4,20,0.00,,---,0.00,VWS V13.01,2013-03-29 12:30:00,
2013-03-29 08:35:00,45.9,7.1,29.77,North,353,5.4,7.2,20,0.00,,---,0.00,VWS V13.01,2013-03-29 12:35:00,
2013-03-29 08:40:00,44.4,5.9,29.77,NNW,348,5.4,7.2,20,0.00,,---,0.00,VWS V13.01,2013-03-29 12:40:00,
2013-03-29 08:45:00,43.3,5.0,29.77,North,0,7.4,9.8,20,0.00,,---,0.00,VWS V13.01,2013-03-29 12:45:00,
2013-03-29 08:51:00,43.3,5.0,29.77,NW,307,8.1,10.7,20,0.00,,---,0.00,VWS V13.01,2013-03-29 12:51:00,
2013-03-29 08:56:00,43.9,5.4,29.77,NNE,32,6.0,8.1,20,0.00,,---,0.00,VWS V13.01,2013-03-29 12:56:00,
2013-03-29 09:02:00,42.8,4.5,29.77,NNW,337,9.4,12.5,20,0.00,,---,0.00,VWS V13.01,2013-03-29 13:02:00,
2013-03-29 09:07:00,42.4,5.3,29.77,WNW,296,6.0,8.1,21,0.00,,---,0.00,VWS V13.01,2013-03-29 13:07:00,
2013-03-29 09:12:00,42.4,5.3,29.77,NNE,16,8.7,11.6,21,0.00,,---,0.00,VWS V13.01,2013-03-29 13:12:00,
2013-03-29 09:17:00,43.2,4.8,29.77,North,2,8.1,10.7,20,0.00,,---,0.00,VWS V13.01,2013-03-29 13:17:00,
2013-03-29 09:23:00,42.4,5.3,29.77,NNW,344,12.4,16.6,21,0.00,,---,0.00,VWS V13.01,2013-03-29 13:23:00,
2013-03-29 09:30:00,43.2,4.8,29.77,North,1,8.7,11.6,20,0.00,,---,0.00,VWS V13.01,2013-03-29 13:30:00,
2013-03-29 09:35:00,44.2,5.7,29.77,West,263,13.1,17.4,20,0.00,,---,0.00,VWS V13.01,2013-03-29 13:35:00,
2013-03-29 09:40:00,45.0,6.3,29.77,North,349,4.0,5.4,20,0.00,,---,0.00,VWS V13.01,2013-03-29 13:40:00,
2013-03-29 09:45:00,44.8,6.2,29.77,NNE,25,9.4,12.5,20,0.00,,---,0.00,VWS V13.01,2013-03-29 13:45:00,
2013-03-29 09:50:00,44.1,5.6,29.77,NNW,341,8.7,11.6,20,0.00,,---,0.00,VWS V13.01,2013-03-29 13:50:00,
2013-03-29 09:55:00,43.7,5.3,29.77,NW,322,13.1,17.4,20,0.00,,---,0.00,VWS V13.01,2013-03-29 13:55:00,
2013-03-29 10:01:00,43.7,5.3,29.77,North,357,11.4,15.2,20,0.00,,---,0.00,VWS V13.01,2013-03-29 14:01:00,
2013-03-29 10:06:00,44.2,5.7,29.77,NNW,329,7.4,9.8,20,0.00,,---,0.00,VWS V13.01,2013-03-29 14:06:00,
2013-03-29 10:11:00,44.8,6.2,29.77,North,349,11.4,15.2,20,0.00,,---,0.00,VWS V13.01,2013-03-29 14:11:00,
2013-03-29 10:16:00,44.4,5.9,29.77,NW,305,7.4,9.8,20,0.00,,---,0.00,VWS V13.01,2013-03-29 14:16:00,
2013-03-29 10:22:00,45.0,6.3,29.77,North,357,5.4,7.2,20,0.00,,---,0.00,VWS V13.01,2013-03-29 14:22:00,
2013-03-29 10:28:00,45.1,6.5,29.77,NNW,333,4.7,6.3,20,0.00,,---,0.00,VWS V13.01,2013-03-29 14:28:00,
2013-03-29 10:33:00,45.7,6.9,29.77,North,353,9.4,12.5,20,0.00,,---,0.00,VWS V13.01,2013-03-29 14:33:00,
2013-03-29 10:38:00,45.7,6.9,29.77,NW,324,8.1,10.7,20,0.00,,---,0.00,VWS V13.01,2013-03-29 14:38:00,
2013-03-29 10:43:00,46.2,7.4,29.77,West,274,11.4,15.2,20,0.00,,---,0.00,VWS V13.01,2013-03-29 14:43:00,
2013-03-29 10:49:00,45.1,6.5,29.77,NW,323,5.4,7.2,20,0.00,,---,0.00,VWS V13.01,2013-03-29 14:49:00,
2013-03-29 10:54:00,44.4,5.9,29.77,NNW,333,11.4,15.2,20,0.00,,---,0.00,VWS V13.01,2013-03-29 14:54:00,
2013-03-29 10:59:00,47.5,7.3,29.77,North,353,0.0,0.0,19,0.00,,---,0.00,VWS V13.01,2013-03-29 14:59:00,
2013-03-29 11:05:00,47.8,7.6,29.77,NNW,339,12.4,16.6,19,0.00,,---,0.00,VWS V13.01,2013-03-29 15:05:00,
2013-03-29 11:11:00,48.4,8.0,29.77,North,0,12.4,16.6,19,0.00,,---,0.00,VWS V13.01,2013-03-29 15:11:00,
2013-03-29 11:17:00,49.3,8.8,29.77,NW,316,4.7,6.3,19,0.00,,---,0.00,VWS V13.01,2013-03-29 15:17:00,
2013-03-29 11:23:00,48.9,8.5,29.77,NW,309,8.1,10.7,19,0.00,,---,0.00,VWS V13.01,2013-03-29 15:23:00,
2013-03-29 11:29:00,47.7,7.4,29.74,WNW,286,13.1,17.4,19,0.00,,---,0.00,VWS V13.01,2013-03-29 15:29:00,
2013-03-29 11:34:00,47.8,7.6,29.74,NW,311,5.4,7.2,19,0.00,,---,0.00,VWS V13.01,2013-03-29 15:34:00,
2013-03-29 11:39:00,47.7,7.4,29.74,NW,312,6.0,8.1,19,0.00,,---,0.00,VWS V13.01,2013-03-29 15:39:00,
2013-03-29 11:45:00,47.7,7.4,29.77,North,0,17.1,22.8,19,0.00,,---,0.00,VWS V13.01,2013-03-29 15:45:00,
2013-03-29 11:51:00,46.9,6.8,29.77,North,357,12.1,16.1,19,0.00,,---,0.00,VWS V13.01,2013-03-29 15:51:00,
2013-03-29 11:57:00,46.2,7.4,29.77,NNW,335,19.8,26.4,20,0.00,,---,0.00,VWS V13.01,2013-03-29 15:57:00,
2013-03-29 12:04:00,45.9,7.1,29.77,NW,314,8.7,11.6,20,0.00,,---,0.00,VWS V13.01,2013-03-29 16:04:00,
2013-03-29 12:09:00,47.1,7.0,29.77,NNW,327,6.0,8.1,19,0.00,,---,0.00,VWS V13.01,2013-03-29 16:09:00,
2013-03-29 12:14:00,48.4,8.0,29.77,WNW,298,8.7,11.6,19,0.00,,---,0.00,VWS V13.01,2013-03-29 16:14:00,
2013-03-29 12:20:00,50.4,9.7,29.77,WNW,299,6.0,8.1,19,0.00,,---,0.00,VWS V13.01,2013-03-29 16:20:00,
2013-03-29 12:26:00,46.6,6.5,29.77,NW,325,11.4,15.2,19,0.00,,---,0.00,VWS V13.01,2013-03-29 16:26:00,
2013-03-29 12:31:00,46.4,6.4,29.77,NE,35,6.7,8.9,19,0.00,,---,0.00,VWS V13.01,2013-03-29 16:31:00,
2013-03-29 12:38:00,46.6,6.5,29.77,NW,309,5.4,7.2,19,0.00,,---,0.00,VWS V13.01,2013-03-29 16:38:00,
2013-03-29 12:43:00,45.7,6.9,29.77,NW,325,6.0,8.1,20,0.00,,---,0.00,VWS V13.01,2013-03-29 16:43:00,
2013-03-29 12:49:00,45.5,6.8,29.77,NW,314,11.4,15.2,20,0.00,,---,0.00,VWS V13.01,2013-03-29 16:49:00,
2013-03-29 12:54:00,46.2,7.4,29.77,NW,310,4.0,5.4,20,0.00,,---,0.00,VWS V13.01,2013-03-29 16:54:00,
2013-03-29 13:00:00,46.6,6.5,29.74,NNW,329,8.1,10.7,19,0.00,,---,0.00,VWS V13.01,2013-03-29 17:00:00,
2013-03-29 13:05:00,46.2,7.4,29.74,NNW,337,8.1,10.7,20,0.00,,---,0.00,VWS V13.01,2013-03-29 17:05:00,
2013-03-29 13:10:00,46.8,6.7,29.74,WNW,298,6.0,8.1,19,0.00,,---,0.00,VWS V13.01,2013-03-29 17:10:00,
2013-03-29 13:16:00,46.8,6.7,29.74,North,353,4.7,6.3,19,0.00,,---,0.00,VWS V13.01,2013-03-29 17:16:00,
2013-03-29 13:21:00,46.6,6.5,29.74,NE,51,6.0,8.1,19,0.00,,---,0.00,VWS V13.01,2013-03-29 17:21:00,
2013-03-29 13:28:00,46.0,7.2,29.74,NW,321,6.0,8.1,20,0.00,,---,0.00,VWS V13.01,2013-03-29 17:28:00,
2013-03-29 13:33:00,46.0,7.2,29.74,NNE,12,11.4,15.2,20,0.00,,---,0.00,VWS V13.01,2013-03-29 17:33:00,
2013-03-29 13:38:00,46.8,6.7,29.74,North,8,8.7,11.6,19,0.00,,---,0.00,VWS V13.01,2013-03-29 17:38:00,
2013-03-29 13:44:00,47.1,7.0,29.74,NNE,22,8.1,10.7,19,0.00,,---,0.00,VWS V13.01,2013-03-29 17:44:00,
2013-03-29 13:49:00,47.1,7.0,29.74,NNE,27,4.7,6.3,19,0.00,,---,0.00,VWS V13.01,2013-03-29 17:49:00,
2013-03-29 13:54:00,46.6,6.5,29.74,ENE,62,12.1,16.1,19,0.00,,---,0.00,VWS V13.01,2013-03-29 17:54:00,
2013-03-29 14:00:00,46.6,6.5,29.74,North,357,4.7,6.3,19,0.00,,---,0.00,VWS V13.01,2013-03-29 18:00:00,
2013-03-29 14:05:00,46.0,7.2,29.74,North,2,15.1,20.1,20,0.00,,---,0.00,VWS V13.01,2013-03-29 18:05:00,
2013-03-29 14:12:00,46.0,7.2,29.74,NNE,16,4.7,6.3,20,0.00,,---,0.00,VWS V13.01,2013-03-29 18:12:00,
2013-03-29 14:17:00,46.4,6.4,29.74,North,353,12.4,16.6,19,0.00,,---,0.00,VWS V13.01,2013-03-29 18:17:00,
2013-03-29 14:23:00,46.0,7.2,29.74,North,1,9.4,12.5,20,0.00,,---,0.00,VWS V13.01,2013-03-29 18:23:00,
2013-03-29 14:29:00,45.1,6.5,29.74,North,9,8.1,10.7,20,0.00,,---,0.00,VWS V13.01,2013-03-29 18:29:00,
2013-03-29 14:34:00,46.9,6.8,29.74,North,0,4.7,6.3,19,0.00,,---,0.00,VWS V13.01,2013-03-29 18:34:00,
2013-03-29 14:39:00,47.3,7.1,29.74,NNW,343,8.7,11.6,19,0.00,,---,0.00,VWS V13.01,2013-03-29 18:39:00,
2013-03-29 14:45:00,47.8,7.6,29.74,North,5,9.4,12.5,19,0.00,,---,0.00,VWS V13.01,2013-03-29 18:45:00,
2013-03-29 14:51:00,46.0,7.2,29.74,North,357,9.4,12.5,20,0.00,,---,0.00,VWS V13.01,2013-03-29 18:51:00,
2013-03-29 14:56:00,46.4,6.4,29.74,NNW,338,13.1,17.4,19,0.00,,---,0.00,VWS V13.01,2013-03-29 18:56:00,
2013-03-29 15:01:00,47.1,7.0,29.74,North,10,6.0,8.1,19,0.00,,---,0.00,VWS V13.01,2013-03-29 19:01:00,
2013-03-29 15:06:00,48.7,8.3,29.74,NE,47,8.1,10.7,19,0.00,,---,0.00,VWS V13.01,2013-03-29 19:06:00,
2013-03-29 15:11:00,51.1,10.3,29.74,NW,318,5.4,7.2,19,0.00,,---,0.00,VWS V13.01,2013-03-29 19:11:00,
2013-03-29 15:17:00,48.4,8.0,29.74,NW,311,6.0,8.1,19,0.00,,---,0.00,VWS V13.01,2013-03-29 19:17:00,
2013-03-29 15:23:00,47.3,7.1,29.74,NNW,340,5.4,7.2,19,0.00,,---,0.00,VWS V13.01,2013-03-29 19:23:00,
2013-03-29 15:29:00,47.3,7.1,29.74,WNW,298,6.0,8.1,19,0.00,,---,0.00,VWS V13.01,2013-03-29 19:29:00,
2013-03-29 15:34:00,46.0,7.2,29.74,NNW,339,9.4,12.5,20,0.00,,---,0.00,VWS V13.01,2013-03-29 19:34:00,
2013-03-29 15:40:00,45.5,6.8,29.74,NW,323,4.7,6.3,20,0.00,,---,0.00,VWS V13.01,2013-03-29 19:40:00,
2013-03-29 15:45:00,45.9,7.1,29.71,NW,314,8.1,10.7,20,0.00,,---,0.00,VWS V13.01,2013-03-29 19:45:00,
2013-03-29 15:52:00,46.0,7.2,29.71,NNW,327,7.4,9.8,20,0.00,,---,0.00,VWS V13.01,2013-03-29 19:52:00,
2013-03-29 15:58:00,46.0,7.2,29.71,NW,324,3.4,4.5,20,0.00,,---,0.00,VWS V13.01,2013-03-29 19:58:00,
2013-03-29 16:04:00,46.0,7.2,29.71,North,353,6.0,8.1,20,0.00,,---,0.00,VWS V13.01,2013-03-29 20:04:00,
2013-03-29 16:10:00,45.9,7.1,29.71,North,353,5.4,7.2,20,0.00,,---,0.00,VWS V13.01,2013-03-29 20:10:00,
2013-03-29 16:15:00,46.2,7.4,29.71,North,353,5.4,7.2,20,0.00,,---,0.00,VWS V13.01,2013-03-29 20:15:00,
2013-03-29 16:20:00,46.0,7.2,29.71,NW,304,4.0,5.4,20,0.00,,---,0.00,VWS V13.01,2013-03-29 20:20:00,
2013-03-29 16:25:00,45.7,6.9,29.71,NNW,348,4.7,6.3,20,0.00,,---,0.00,VWS V13.01,2013-03-29 20:25:00,
2013-03-29 16:32:00,46.2,7.4,29.71,NW,311,4.7,6.3,20,0.00,,---,0.00,VWS V13.01,2013-03-29 20:32:00,
2013-03-29 16:37:00,46.2,7.4,29.71,North,349,4.0,5.4,20,0.00,,---,0.00,VWS V13.01,2013-03-29 20:37:00,
2013-03-29 16:42:00,46.2,7.4,29.71,NW,316,4.0,5.4,20,0.00,,---,0.00,VWS V13.01,2013-03-29 20:42:00,
2013-03-29 16:48:00,46.0,7.2,29.71,NNW,346,4.0,5.4,20,0.00,,---,0.00,VWS V13.01,2013-03-29 20:48:00,
2013-03-29 16:54:00,45.7,6.9,29.71,NNW,346,5.4,7.2,20,0.00,,---,0.00,VWS V13.01,2013-03-29 20:54:00,
2013-03-29 16:59:00,45.5,6.8,29.71,NNW,341,4.0,5.4,20,0.00,,---,0.00,VWS V13.01,2013-03-29 20:59:00,
2013-03-29 17:05:00,46.0,7.2,29.71,NNW,346,4.0,5.4,20,0.00,,---,0.00,VWS V13.01,2013-03-29 21:05:00,
2013-03-29 17:10:00,46.9,6.8,29.71,NW,322,3.4,4.5,19,0.00,,---,0.00,VWS V13.01,2013-03-29 21:10:00,
2013-03-29 17:16:00,48.9,8.5,29.71,NNW,338,0.0,0.0,19,0.00,,---,0.00,VWS V13.01,2013-03-29 21:16:00,
2013-03-29 17:21:00,48.7,8.3,29.71,WNW,303,4.0,5.4,19,0.00,,---,0.00,VWS V13.01,2013-03-29 21:21:00,
2013-03-29 17:27:00,47.3,7.1,29.71,NNW,334,3.4,4.5,19,0.00,,---,0.00,VWS V13.01,2013-03-29 21:27:00,
2013-03-29 17:32:00,47.1,7.0,29.71,WNW,298,4.7,6.3,19,0.00,,---,0.00,VWS V13.01,2013-03-29 21:32:00,
2013-03-29 17:37:00,46.9,6.8,29.71,NNW,340,0.0,0.0,19,0.00,,---,0.00,VWS V13.01,2013-03-29 21:37:00,
2013-03-29 17:42:00,47.1,7.0,29.71,NNW,337,0.0,0.0,19,0.00,,---,0.00,VWS V13.01,2013-03-29 21:42:00,
2013-03-29 17:48:00,47.3,7.1,29.71,NNW,337,0.0,0.0,19,0.00,,---,0.00,VWS V13.01,2013-03-29 21:48:00,
2013-03-29 17:54:00,49.5,8.9,29.71,NNW,334,0.0,0.0,19,0.00,,---,0.00,VWS V13.01,2013-03-29 21:54:00,
2013-03-29 18:00:00,51.4,10.6,29.71,NNW,337,0.0,0.0,19,0.00,,---,0.00,VWS V13.01,2013-03-29 22:00:00,
2013-03-29 18:06:00,51.3,10.4,29.71,North,357,4.7,6.3,19,0.00,,---,0.00,VWS V13.01,2013-03-29 22:06:00,
2013-03-29 18:11:00,48.2,7.9,29.71,WNW,290,10.1,13.4,19,0.00,,---,0.00,VWS V13.01,2013-03-29 22:11:00,
2013-03-29 18:17:00,48.2,7.9,29.74,NNW,341,6.0,8.1,19,0.00,,---,0.00,VWS V13.01,2013-03-29 22:17:00,
2013-03-29 18:22:00,49.1,8.6,29.74,WNW,294,6.0,8.1,19,0.00,,---,0.00,VWS V13.01,2013-03-29 22:22:00,
2013-03-29 18:27:00,48.2,7.9,29.74,North,357,6.0,8.1,19,0.00,,---,0.00,VWS V13.01,2013-03-29 22:27:00,
2013-03-29 18:32:00,46.9,6.8,29.74,NNW,328,7.4,9.8,19,0.00,,---,0.00,VWS V13.01,2013-03-29 22:32:00,
2013-03-29 18:38:00,47.1,7.0,29.74,West,276,7.4,9.8,19,0.00,,---,0.00,VWS V13.01,2013-03-29 22:38:00,
2013-03-29 18:43:00,46.4,6.4,29.74,WNW,284,6.0,8.1,19,0.00,,---,0.00,VWS V13.01,2013-03-29 22:43:00,
2013-03-29 18:48:00,44.8,6.2,29.74,West,279,6.0,8.1,20,0.00,,---,0.00,VWS V13.01,2013-03-29 22:48:00,
2013-03-29 18:53:00,44.2,5.7,29.74,West,265,5.4,7.2,20,0.00,,---,0.00,VWS V13.01,2013-03-29 22:53:00,
2013-03-29 18:59:00,43.0,4.7,29.74,WNW,284,9.4,12.5,20,0.00,,---,0.00,VWS V13.01,2013-03-29 22:59:00,
2013-03-29 19:04:00,42.6,5.4,29.74,NW,324,8.1,10.7,21,0.00,,---,0.00,VWS V13.01,2013-03-29 23:04:00,
2013-03-29 19:09:00,41.9,4.8,29.74,WNW,299,6.0,8.1,21,0.00,,---,0.00,VWS V13.01,2013-03-29 23:09:00,
2013-03-29 19:14:00,41.4,4.4,29.74,NNW,332,6.0,8.1,21,0.00,,---,0.00,VWS V13.01,2013-03-29 23:14:00,
2013-03-29 19:20:00,40.8,3.9,29.74,NNW,346,6.0,8.1,21,0.00,,---,0.00,VWS V13.01,2013-03-29 23:20:00,
2013-03-29 19:25:00,40.6,3.8,29.74,NW,308,6.0,8.1,21,0.00,,---,0.00,VWS V13.01,2013-03-29 23:25:00,
2013-03-29 19:30:00,40.1,3.3,29.74,West,281,0.0,0.0,21,0.00,,---,0.00,VWS V13.01,2013-03-29 23:30:00,
2013-03-29 19:36:00,40.1,3.3,29.74,West,276,6.0,8.1,21,0.00,,---,0.00,VWS V13.01,2013-03-29 23:36:00,
2013-03-29 19:42:00,40.1,3.3,29.74,NNW,341,5.4,7.2,21,0.00,,---,0.00,VWS V13.01,2013-03-29 23:42:00,
2013-03-29 19:47:00,40.1,3.3,29.74,NW,315,5.4,7.2,21,0.00,,---,0.00,VWS V13.01,2013-03-29 23:47:00,
2013-03-29 19:53:00,40.1,3.3,29.74,NNW,329,5.4,7.2,21,0.00,,---,0.00,VWS V13.01,2013-03-29 23:53:00,
2013-03-29 19:58:00,39.9,3.2,29.74,NNW,332,6.0,8.1,21,0.00,,---,0.00,VWS V13.01,2013-03-29 23:58:00,
2013-03-29 20:03:00,39.7,5.0,29.74,NW,315,4.0,5.4,23,0.00,,---,0.00,VWS V13.01,2013-03-30 00:03:00,
2013-03-29 20:08:00,39.6,4.8,29.74,NW,325,7.4,9.8,23,0.00,,---,0.00,VWS V13.01,2013-03-30 00:08:00,
2013-03-29 20:14:00,39.7,5.0,29.74,NW,321,10.1,13.4,23,0.00,,---,0.00,VWS V13.01,2013-03-30 00:14:00,
2013-03-29 20:19:00,39.4,4.7,29.74,North,353,6.0,8.1,23,0.00,,---,0.00,VWS V13.01,2013-03-30 00:19:00,
2013-03-29 20:24:00,39.0,5.3,29.74,NNW,345,8.7,11.6,24,0.00,,---,0.00,VWS V13.01,2013-03-30 00:24:00,
2013-03-29 20:29:00,38.7,5.0,29.74,NW,317,7.4,9.8,24,0.00,,---,0.00,VWS V13.01,2013-03-30 00:29:00,
2013-03-29 20:35:00,38.5,6.6,29.74,NNW,344,8.7,11.6,26,0.00,,---,0.00,VWS V13.01,2013-03-30 00:35:00,
2013-03-29 20:41:00,38.8,5.2,29.74,NNW,337,8.7,11.6,24,0.00,,---,0.00,VWS V13.01,2013-03-30 00:41:00,
2013-03-29 20:46:00,38.8,6.9,29.74,NW,312,6.0,8.1,26,0.00,,---,0.00,VWS V13.01,2013-03-30 00:46:00,
2013-03-29 20:51:00,38.7,6.7,29.74,North,353,5.4,7.2,26,0.00,,---,0.00,VWS V13.01,2013-03-30 00:51:00,
2013-03-29 20:58:00,38.7,6.7,29.74,NNW,334,8.1,10.7,26,0.00,,---,0.00,VWS V13.01,2013-03-30 00:58:00,
2013-03-29 21:04:00,38.3,6.4,29.74,North,353,8.1,10.7,26,0.00,,---,0.00,VWS V13.01,2013-03-30 01:04:00,
2013-03-29 21:09:00,38.5,6.6,29.74,North,10,10.1,13.4,26,0.00,,---,0.00,VWS V13.01,2013-03-30 01:09:00,
2013-03-29 21:14:00,37.9,8.5,29.77,NNW,327,8.1,10.7,29,0.00,,---,0.00,VWS V13.01,2013-03-30 01:14:00,
2013-03-29 21:20:00,37.9,8.5,29.77,North,6,12.1,16.1,29,0.00,,---,0.00,VWS V13.01,2013-03-30 01:20:00,
2013-03-29 21:25:00,38.1,8.7,29.77,NNW,344,6.0,8.1,29,0.00,,---,0.00,VWS V13.01,2013-03-30 01:25:00,
2013-03-29 21:31:00,37.6,8.2,29.77,NNW,328,6.0,8.1,29,0.00,,---,0.00,VWS V13.01,2013-03-30 01:31:00,
2013-03-29 21:36:00,37.4,8.1,29.77,NW,317,8.1,10.7,29,0.00,,---,0.00,VWS V13.01,2013-03-30 01:36:00,
2013-03-29 21:41:00,37.4,8.1,29.77,NNW,340,8.1,10.7,29,0.00,,---,0.00,VWS V13.01,2013-03-30 01:41:00,
2013-03-29 21:48:00,37.0,8.5,29.77,NNW,345,4.7,6.3,30,0.00,,---,0.00,VWS V13.01,2013-03-30 01:48:00,
2013-03-29 21:54:00,36.3,7.9,29.77,NNW,331,8.7,11.6,30,0.00,,---,0.00,VWS V13.01,2013-03-30 01:54:00,
2013-03-29 21:59:00,36.3,7.9,29.77,NNW,340,5.4,7.2,30,0.00,,---,0.00,VWS V13.01,2013-03-30 01:59:00,
2013-03-29 22:04:00,36.3,7.9,29.77,NNW,337,4.7,6.3,30,0.00,,---,0.00,VWS V13.01,2013-03-30 02:04:00,
2013-03-29 22:10:00,36.1,7.7,29.77,North,7,8.1,10.7,30,0.00,,---,0.00,VWS V13.01,2013-03-30 02:10:00,
2013-03-29 22:15:00,35.8,7.4,29.77,NW,326,5.4,7.2,30,0.00,,---,0.00,VWS V13.01,2013-03-30 02:15:00,
2013-03-29 22:22:00,36.1,7.7,29.77,NNW,334,6.0,8.1,30,0.00,,---,0.00,VWS V13.01,2013-03-30 02:22:00,
2013-03-29 22:27:00,35.6,7.2,29.77,NW,305,5.4,7.2,30,0.00,,---,0.00,VWS V13.01,2013-03-30 02:27:00,
2013-03-29 22:32:00,35.6,7.2,29.77,North,353,7.4,9.8,30,0.00,,---,0.00,VWS V13.01,2013-03-30 02:32:00,
2013-03-29 22:38:00,35.6,7.2,29.77,North,353,4.0,5.4,30,0.00,,---,0.00,VWS V13.01,2013-03-30 02:38:00,
2013-03-29 22:43:00,35.4,7.1,29.77,NNW,339,4.7,6.3,30,0.00,,---,0.00,VWS V13.01,2013-03-30 02:43:00,
2013-03-29 22:48:00,35.4,7.1,29.77,NNW,344,4.7,6.3,30,0.00,,---,0.00,VWS V13.01,2013-03-30 02:48:00,
2013-03-29 22:53:00,34.9,6.6,29.77,North,350,4.0,5.4,30,0.00,,---,0.00,VWS V13.01,2013-03-30 02:53:00,
2013-03-29 22:58:00,34.3,6.9,29.77,North,349,4.7,6.3,31,0.00,,---,0.00,VWS V13.01,2013-03-30 02:58:00,
2013-03-29 23:03:00,34.3,6.1,29.77,North,353,4.7,6.3,30,0.00,,---,0.00,VWS V13.01,2013-03-30 03:03:00,
2013-03-29 23:09:00,34.3,6.1,29.77,North,353,3.4,4.5,30,0.00,,---,0.00,VWS V13.01,2013-03-30 03:09:00,
2013-03-29 23:14:00,34.5,4.0,29.77,NNW,327,4.7,6.3,27,0.00,,---,0.00,VWS V13.01,2013-03-30 03:14:00,
2013-03-29 23:20:00,34.3,3.8,29.77,North,357,4.7,6.3,27,0.00,,---,0.00,VWS V13.01,2013-03-30 03:20:00,
2013-03-29 23:25:00,34.5,2.3,29.77,NNW,340,4.7,6.3,25,0.00,,---,0.00,VWS V13.01,2013-03-30 03:25:00,
2013-03-29 23:30:00,34.3,2.2,29.77,North,9,4.0,5.4,25,0.00,,---,0.00,VWS V13.01,2013-03-30 03:30:00,
2013-03-29 23:35:00,34.3,2.2,29.77,North,357,7.4,9.8,25,0.00,,---,0.00,VWS V13.01,2013-03-30 03:35:00,
2013-03-29 23:41:00,34.3,2.2,29.77,NNE,20,6.0,8.1,25,0.00,,---,0.00,VWS V13.01,2013-03-30 03:41:00,
2013-03-29 23:48:00,34.3,-0.6,29.77,North,1,5.4,7.2,22,0.00,,---,0.00,VWS V13.01,2013-03-30 03:48:00,
2013-03-29 23:53:00,33.6,-0.2,29.77,NNE,16,0.0,0.0,23,0.00,,---,0.00,VWS V13.01,2013-03-30 03:53:00,